Location: Newark
(50.0306°N, 2.3272°E)
Time: 06:47:17
(UTC+00:00)

Vanguard 1 Rocket - Pass Details

Date: 11 December 2019
Orbit: 650 x 4226 km, 34.3° (Epoch: 23 January)

Event Time Altitude Azimuth Distance (km) Brightness Sun altitude
Rises 17:35:31 0° 192° (SSW) 8,355 12.7 -16.1°
Reaches altitude 10° 17:45:15 10° 176° (S) 6,915 12.0 -17.6°
Maximum altitude 17:56:01 16° 146° (SE) 5,590 11.2 -19.3°
Enters shadow 18:03:50 11° 117° (ESE) 5,265 10.8 -20.5°
Drops below altitude 10° 18:04:26 10° 115° (ESE) 5,275 - -20.6°
Sets 18:09:55 0° 96° (E) 5,633 - -21.5°
